This is the latest recevied weather packets stored in our database for station/object 9A3SWO. If no packets are shown the sender has not sent any weather packets the latest 10 day(s).
| Time | Temp. | Humidity | Pressure | Rain* | Wind** | Luminosity | Snow |
|---|---|---|---|---|---|---|---|
| 1787575685 | 27.78° C | 34% | 1019 hPa | - | - | - | - |
| 1787575085 | 26.67° C | 35% | 1019.2 hPa | - | - | - | - |
| 1787574486 | 27.22° C | 34% | 1019.3 hPa | - | - | - | - |
| 1787573886 | 28.33° C | 37% | 1019.2 hPa | - | - | - | - |
| 1787573285 | 27.22° C | 36% | 1019.4 hPa | - | - | - | - |
| 1787572685 | 26.67° C | 36% | 1019.4 hPa | - | - | - | - |
| 1787572085 | 27.22° C | 36% | 1019.6 hPa | - | - | - | - |
| 1787571485 | 26.67° C | 35% | 1019.5 hPa | - | - | - | - |
| 1787570885 | 26.67° C | 38% | 1019.7 hPa | - | - | - | - |
| 1787570286 | 27.22° C | 36% | 1019.6 hPa | - | - | - | - |
| 1787569688 | 26.11° C | 37% | 1019.8 hPa | - | - | - | - |
| 1787569085 | 26.67° C | 37% | 1019.8 hPa | - | - | - | - |
| 1787568486 | 26.67° C | 38% | 1020 hPa | - | - | - | - |
| 1787567886 | 26.67° C | 38% | 1020 hPa | - | - | - | - |
| 1787567285 | 26.11° C | 37% | 1020.1 hPa | - | - | - | - |
| 1787566686 | 27.22° C | 37% | 1020 hPa | - | - | - | - |
| 1787566086 | 27.22° C | 38% | 1020.2 hPa | - | - | - | - |
| 1787565484 | 26.67° C | 40% | 1020.2 hPa | - | - | - | - |
| 1787564885 | 27.22° C | 39% | 1020.3 hPa | - | - | - | - |
| 1787564285 | 27.22° C | 40% | 1020.4 hPa | - | - | - | - |
| 1787563685 | 26.67° C | 41% | 1020.4 hPa | - | - | - | - |
| 1787563085 | 26.11° C | 41% | 1020.5 hPa | - | - | - | - |
| 1787562484 | 26.67° C | 41% | 1020.7 hPa | - | - | - | - |
| 1787561885 | 26.67° C | 42% | 1020.8 hPa | - | - | - | - |
| 1787561288 | 26.11° C | 42% | 1020.8 hPa | - | - | - | - |
* Rain since midnight (hover to see other rain measurements)
** Current wind speed in m/s (hover to see current wind gust speed)